Oxford, MS

7:29 AM CDT on March 23, 2017 (GMT -0500)
University-Oxford

Weather History for KUOX - January, 2013

Change the Weather History Date:

Saturday, January 26, 2013

  Actual Average Record
Temperature  
Mean Temperature 42 °F -  
Max Temperature 53 °F 52 °F 79 °F (1952)
Min Temperature 30 °F 27 °F 2 °F (1940)
Degree Days  
Heating Degree Days 24    
Moisture  
Dew Point 33 °F    
Average Humidity 71    
Maximum Humidity 100    
Minimum Humidity 44    
Precipitation  
Precipitation 0.00 in - - ()
Sea Level Pressure  
Sea Level Pressure 30.29 in    
Wind  
Wind Speed 2 mph (East)    
Max Wind Speed 10 mph    
Max Gust Speed -    
Visibility 6 miles    
Events Rain    
Averages and records for this station are not official NWS values.
T = Trace of Precipitation, MM = Missing Value Source: NWS Daily Summary

Daily Weather History Graph

Daily Weather History Graph

Search for Another Location

Airport or City:

Trip Planner

Search our weather history database for the weather conditions in past years. The results will help you decide how hot, cold, wet, or windy it might be!

Date:

Astronomy

Jan. 26, 2013 Rise Set
Actual Time 6:59 AM CST 5:22 PM CST
Civil Twilight 6:32 AM CST 5:49 PM CST
Nautical Twilight 6:02 AM CST 6:19 PM CST
Astronomical Twilight 5:32 AM CST 6:49 PM CST
Moon 5:14 PM CST (1/26) 6:18 AM CST (1/26)
Length of Visible Light 11h 16m
Length of Day
10h 22m
Full, 100% of the Moon is Illuminated
Jan 26
Full
Jan 26
Full
Feb 3
Last Quarter
Feb 10
New
Feb 17
First Quarter

Hourly Weather History & Observations

Time (CST) Temp. Windchill Dew Point Humidity Pressure Visibility Wind Dir Wind Speed Gust Speed Precip Events Conditions
12:15 AM 33.8 °F 29.6 °F 32.0 °F 93% 30.26 in 3.0 mi ENE 4.6 mph - N/A   Clear
12:35 AM 32.0 °F - 32.0 °F 100% 30.26 in 2.5 mi Calm Calm - N/A   Clear
12:55 AM 32.0 °F - 32.0 °F 100% 30.26 in 2.5 mi Calm Calm - N/A   Clear
1:15 AM 32.0 °F - 32.0 °F 100% 30.27 in 2.5 mi Calm Calm - N/A   Clear
1:35 AM 32.0 °F - 32.0 °F 100% 30.27 in 1.8 mi Calm Calm - N/A   Scattered Clouds
1:55 AM 32.0 °F 28.7 °F 32.0 °F 100% 30.27 in 2.0 mi ENE 3.5 mph - N/A   Scattered Clouds
2:15 AM 32.0 °F - 32.0 °F 100% 30.27 in 1.5 mi Calm Calm - N/A   Mostly Cloudy
2:35 AM 32.0 °F - 32.0 °F 100% 30.27 in 2.0 mi Calm Calm - N/A   Scattered Clouds
2:55 AM 32.0 °F - 32.0 °F 100% 30.27 in 2.0 mi Calm Calm - N/A   Clear
3:15 AM 32.0 °F 28.7 °F 32.0 °F 100% 30.27 in 3.0 mi NNE 3.5 mph - N/A   Clear
3:35 AM 32.0 °F - 30.2 °F 93% 30.27 in 2.0 mi Calm Calm - N/A   Clear
3:55 AM 32.0 °F - 32.0 °F 100% 30.27 in 3.0 mi Calm Calm - N/A   Clear
4:15 AM 32.0 °F - 30.2 °F 93% 30.29 in 2.0 mi Calm Calm - N/A   Clear
4:35 AM 32.0 °F - 30.2 °F 93% 30.29 in 2.5 mi Calm Calm - N/A   Clear
4:55 AM 30.2 °F - 30.2 °F 100% 30.29 in 1.8 mi Calm Calm - N/A   Clear
5:15 AM 30.2 °F - 28.4 °F 93% 30.29 in 1.5 mi Calm Calm - N/A   Clear
5:35 AM 30.2 °F - 28.4 °F 93% 30.29 in 2.5 mi Calm Calm - N/A   Clear
5:55 AM 32.0 °F - 30.2 °F 93% 30.29 in 3.0 mi Calm Calm - N/A   Clear
6:15 AM 32.0 °F - 30.2 °F 93% 30.29 in 3.0 mi Calm Calm - N/A   Clear
6:35 AM 32.0 °F 28.7 °F 32.0 °F 100% 30.30 in 2.5 mi East 3.5 mph - N/A   Clear
6:55 AM 32.0 °F - 32.0 °F 100% 30.30 in 1.5 mi Calm Calm - N/A   Clear
7:15 AM 32.0 °F - 32.0 °F 100% 30.31 in 2.5 mi Calm Calm - N/A   Clear
7:35 AM 32.0 °F - 32.0 °F 100% 30.32 in 2.0 mi Calm Calm - N/A   Clear
7:55 AM 32.0 °F - 32.0 °F 100% 30.32 in 3.0 mi Calm Calm - N/A   Clear
8:15 AM 35.6 °F - 33.8 °F 93% 30.32 in 4.0 mi Calm Calm - N/A   Clear
8:35 AM 37.4 °F 34.9 °F 35.6 °F 93% 30.33 in 5.0 mi East 3.5 mph - N/A   Clear
8:55 AM 39.2 °F 35.9 °F 35.6 °F 87% 30.33 in 6.0 mi East 4.6 mph - N/A   Haze
9:15 AM 41.0 °F 37.1 °F 35.6 °F 81% 30.34 in 5.0 mi East 5.8 mph - N/A   Haze
9:35 AM 41.0 °F 35.8 °F 33.8 °F 76% 30.34 in 7.0 mi ENE 8.1 mph - N/A   Clear
9:55 AM 44.6 °F 39.2 °F 33.8 °F 66% 30.34 in 6.0 mi East 10.4 mph - N/A   Haze
10:15 AM 44.6 °F 39.7 °F 32.0 °F 61% 30.34 in 8.0 mi ENE 9.2 mph - N/A   Clear
10:55 AM 48.2 °F - 32.0 °F 54% 30.33 in 8.0 mi East 5.8 mph - N/A   Clear
11:15 AM 48.2 °F - 32.0 °F 54% 30.34 in 9.0 mi South 3.5 mph - N/A   Clear
11:35 AM 48.2 °F - 32.0 °F 54% 30.33 in 8.0 mi Calm Calm - N/A   Clear
11:55 AM 50.0 °F - 32.0 °F 50% 30.32 in 8.0 mi Calm Calm - N/A   Clear
12:15 PM 50.0 °F - 32.0 °F 50% 30.31 in 8.0 mi NNW 3.5 mph - N/A   Clear
12:35 PM 50.0 °F - 32.0 °F 50% 30.30 in 8.0 mi Calm Calm - N/A   Partly Cloudy
12:55 PM 51.8 °F - 32.0 °F 47% 30.29 in 8.0 mi NE 3.5 mph - N/A   Partly Cloudy
1:15 PM 53.6 °F - 32.0 °F 44% 30.29 in 9.0 mi Calm Calm - N/A   Partly Cloudy
1:35 PM 53.6 °F - 32.0 °F 44% 30.28 in 9.0 mi Calm Calm - N/A   Partly Cloudy
1:55 PM 53.6 °F - 32.0 °F 44% 30.28 in 9.0 mi Calm Calm - N/A   Partly Cloudy
2:15 PM 53.6 °F - 32.0 °F 44% 30.28 in 8.0 mi Calm Calm - N/A   Partly Cloudy
2:35 PM 53.6 °F - 32.0 °F 44% 30.28 in 8.0 mi NNE 3.5 mph - N/A   Partly Cloudy
2:55 PM 53.6 °F - 32.0 °F 44% 30.27 in 10.0 mi Calm Calm - N/A   Partly Cloudy
3:35 PM 53.6 °F - 32.0 °F 44% 30.27 in 9.0 mi East 5.8 mph - N/A   Clear
3:55 PM 53.6 °F - 32.0 °F 44% 30.27 in 9.0 mi Calm Calm - N/A   Partly Cloudy
4:15 PM 51.8 °F - 32.0 °F 47% 30.27 in 9.0 mi East 3.5 mph - N/A Rain Light Rain
4:35 PM 51.8 °F - 32.0 °F 47% 30.27 in 9.0 mi Calm Calm - N/A   Partly Cloudy
4:55 PM 50.0 °F - 33.8 °F 54% 30.27 in 9.0 mi Calm Calm - N/A   Partly Cloudy
5:15 PM 50.0 °F - 35.6 °F 58% 30.27 in 9.0 mi Calm Calm - N/A   Partly Cloudy
5:55 PM 48.2 °F - 37.4 °F 66% 30.27 in 10.0 mi Calm Calm - N/A   Mostly Cloudy
6:15 PM 50.0 °F - 37.4 °F 62% 30.28 in 10.0 mi Calm Calm - N/A   Overcast
6:35 PM 50.0 °F - 35.6 °F 58% 30.28 in 10.0 mi Calm Calm - N/A   Overcast
6:55 PM 50.0 °F - 37.4 °F 62% 30.28 in 10.0 mi Calm Calm - N/A   Overcast
7:15 PM 48.2 °F - 39.2 °F 71% 30.29 in 10.0 mi Calm Calm - N/A   Overcast
7:35 PM 48.2 °F - 39.2 °F 71% 30.29 in 10.0 mi East 6.9 mph - N/A   Overcast
7:55 PM 48.2 °F - 32.0 °F 54% 30.29 in 10.0 mi East 4.6 mph - N/A   Overcast
8:15 PM 48.2 °F - 33.8 °F 58% 30.29 in 10.0 mi East 4.6 mph - N/A   Overcast
8:35 PM 48.2 °F - 35.6 °F 62% 30.29 in 10.0 mi ESE 3.5 mph - N/A   Overcast
8:55 PM 48.2 °F - 32.0 °F 54% 30.29 in 10.0 mi East 3.5 mph - N/A   Overcast
9:15 PM 48.2 °F - 32.0 °F 54% 30.29 in 10.0 mi Calm Calm - N/A   Overcast
9:35 PM 48.2 °F - 32.0 °F 54% 30.29 in 10.0 mi Calm Calm - N/A   Overcast
9:55 PM 48.2 °F - 32.0 °F 54% 30.29 in 10.0 mi Calm Calm - N/A   Overcast
10:15 PM 48.2 °F - 32.0 °F 54% 30.29 in 10.0 mi East 4.6 mph - N/A   Overcast
10:35 PM 48.2 °F - 32.0 °F 54% 30.28 in 10.0 mi Calm Calm - N/A   Overcast
10:55 PM 48.2 °F - 32.0 °F 54% 30.28 in 10.0 mi East 3.5 mph - N/A   Mostly Cloudy
11:15 PM 48.2 °F - 32.0 °F 54% 30.28 in 10.0 mi East 3.5 mph - N/A   Mostly Cloudy
11:35 PM 48.2 °F - 32.0 °F 54% 30.28 in 10.0 mi ENE 3.5 mph - N/A   Overcast
11:55 PM 48.2 °F - 32.0 °F 54% 30.29 in 10.0 mi Calm Calm - N/A   Overcast